BOX5126 LKMT-EDDP

Flight info

Callsign BOX5126
Flight time 0h 57m
Altitude 26000
Route BAXEV DCT OMIFU DCT BEFRE DCT IVQOQ T951 YAWOY
Aircraft B737/M-SDE2E3FGHIRWXY/L

Departure

Time 2026-05-05 20:11
Airport Leoš Janáček Airport Ostrava (LKMT)

Arrival

Time 2026-05-05 21:08
Airport Leipzig/Halle Airport (EDDP)
Time Latitude Longitude Altitude Speed Heading
2026-05-05 19:57 49.69533 18.11923 830 ft 0 kts 175°
2026-05-05 20:05 49.69533 18.11922 830 ft 0 kts 178°
2026-05-05 20:05 49.69528 18.11916 825 ft 1 kts 219°
2026-05-05 20:05 49.69528 18.11903 827 ft 1 kts 281°
2026-05-05 20:06 49.69536 18.11896 830 ft 1 kts 343°
2026-05-05 20:06 49.69563 18.11878 838 ft 7 kts 326°
2026-05-05 20:06 49.69602 18.11822 829 ft 8 kts 328°
2026-05-05 20:06 49.69651 18.11835 829 ft 8 kts 38°
2026-05-05 20:07 49.69696 18.11906 827 ft 11 kts 46°
2026-05-05 20:07 49.69754 18.12000 825 ft 12 kts 46°
2026-05-05 20:07 49.69812 18.12094 824 ft 12 kts 46°
2026-05-05 20:07 49.69869 18.12185 823 ft 12 kts 45°
2026-05-05 20:08 49.69926 18.12275 822 ft 12 kts 46°
2026-05-05 20:08 49.69981 18.12363 824 ft 11 kts 46°
2026-05-05 20:08 49.70036 18.12444 823 ft 11 kts 28°
2026-05-05 20:08 49.70095 18.12416 823 ft 9 kts 317°
2026-05-05 20:09 49.70140 18.12348 825 ft 9 kts 316°
2026-05-05 20:09 49.70185 18.12283 825 ft 9 kts 316°
2026-05-05 20:09 49.70232 18.12213 825 ft 10 kts 316°
2026-05-05 20:09 49.70271 18.12130 824 ft 10 kts 273°
2026-05-05 20:10 49.70239 18.12072 826 ft 7 kts 219°
2026-05-05 20:10 49.70190 18.12003 826 ft 26 kts 226°
2026-05-05 20:10 49.69883 18.11507 831 ft 99 kts 226°
2026-05-05 20:10 49.69261 18.10512 886 ft 151 kts 225°
2026-05-05 20:11 49.68494 18.09310 1454 ft 164 kts 223°
2026-05-05 20:11 49.67669 18.08018 2181 ft 166 kts 223°
2026-05-05 20:11 49.66880 18.06726 3155 ft 170 kts 220°
2026-05-05 20:11 49.65993 18.05291 3559 ft 201 kts 221°
2026-05-05 20:12 49.65033 18.03555 4077 ft 227 kts 233°
2026-05-05 20:12 49.64555 18.01100 4808 ft 254 kts 260°
2026-05-05 20:12 49.64822 17.98338 5918 ft 271 kts 286°
2026-05-05 20:12 49.65935 17.95928 6979 ft 285 kts 315°
2026-05-05 20:13 49.67657 17.94253 8010 ft 294 kts 331°
2026-05-05 20:13 49.69516 17.92968 9014 ft 298 kts 334°
2026-05-05 20:13 49.71437 17.91700 10001 ft 303 kts 334°
2026-05-05 20:13 49.73417 17.90339 10533 ft 324 kts 333°
2026-05-05 20:14 49.75549 17.88820 10946 ft 347 kts 333°
2026-05-05 20:14 49.77755 17.87219 11862 ft 349 kts 333°
2026-05-05 20:14 49.79955 17.85588 12854 ft 353 kts 332°
2026-05-05 20:14 49.82190 17.83909 13651 ft 362 kts 332°
2026-05-05 20:15 49.84468 17.82192 14439 ft 366 kts 332°
2026-05-05 20:15 49.86745 17.80378 15248 ft 369 kts 324°
2026-05-05 20:15 49.88577 17.77644 16029 ft 366 kts 301°
2026-05-05 20:15 49.89629 17.74088 16880 ft 362 kts 281°
2026-05-05 20:16 49.89897 17.70231 17691 ft 362 kts 263°
2026-05-05 20:16 49.89584 17.66349 18428 ft 365 kts 259°
2026-05-05 20:16 49.89167 17.62442 19148 ft 369 kts 258°
2026-05-05 20:16 49.88736 17.58497 19866 ft 372 kts 258°
2026-05-05 20:17 49.88330 17.54577 20686 ft 372 kts 259°
2026-05-05 20:17 49.87939 17.50643 21724 ft 366 kts 259°
2026-05-05 20:17 49.87557 17.46747 22668 ft 365 kts 259°
2026-05-05 20:17 49.87361 17.42811 23405 ft 370 kts 273°
2026-05-05 20:18 49.87730 17.38856 24168 ft 369 kts 277°
2026-05-05 20:18 49.88157 17.34963 25041 ft 364 kts 277°
2026-05-05 20:18 49.88587 17.31090 25526 ft 363 kts 277°
2026-05-05 20:18 49.89010 17.27233 25782 ft 364 kts 277°
2026-05-05 20:19 49.89426 17.23349 25773 ft 365 kts 277°
2026-05-05 20:19 49.89833 17.19475 25795 ft 363 kts 277°
2026-05-05 20:19 49.90233 17.15609 25794 ft 363 kts 277°
2026-05-05 20:19 49.90629 17.11751 25793 ft 362 kts 277°
2026-05-05 20:20 49.91021 17.07896 25797 ft 362 kts 277°
2026-05-05 20:20 49.91411 17.04041 25808 ft 361 kts 277°
2026-05-05 20:20 49.91794 17.00237 25797 ft 362 kts 276°
2026-05-05 20:20 49.92181 16.96379 25795 ft 363 kts 276°
2026-05-05 20:21 49.92568 16.92506 25791 ft 363 kts 276°
2026-05-05 20:21 49.92954 16.88625 25783 ft 364 kts 276°
2026-05-05 20:21 49.93340 16.84744 25787 ft 364 kts 276°
2026-05-05 20:21 49.93724 16.80855 25793 ft 365 kts 276°
2026-05-05 20:22 49.94108 16.76963 25788 ft 365 kts 276°
2026-05-05 20:22 49.94492 16.73059 25786 ft 366 kts 276°
2026-05-05 20:22 49.94874 16.69154 25784 ft 366 kts 276°
2026-05-05 20:22 49.95255 16.65248 25782 ft 366 kts 276°
2026-05-05 20:23 49.95635 16.61336 25790 ft 366 kts 276°
2026-05-05 20:23 49.96014 16.57426 25784 ft 366 kts 276°
2026-05-05 20:23 49.96391 16.53519 25776 ft 366 kts 276°
2026-05-05 20:23 49.96766 16.49615 25772 ft 366 kts 276°
2026-05-05 20:24 49.97141 16.45705 25777 ft 365 kts 276°
2026-05-05 20:24 49.97514 16.41793 25776 ft 365 kts 276°
2026-05-05 20:24 49.97885 16.37889 25764 ft 365 kts 276°
2026-05-05 20:24 49.98250 16.34041 25767 ft 364 kts 276°
2026-05-05 20:25 49.98618 16.30138 25768 ft 364 kts 276°
2026-05-05 20:25 49.98984 16.26245 25764 ft 364 kts 276°
2026-05-05 20:25 49.99349 16.22349 25757 ft 364 kts 276°
2026-05-05 20:25 49.99713 16.18454 25759 ft 363 kts 276°
2026-05-05 20:26 50.00074 16.14571 25764 ft 363 kts 276°
2026-05-05 20:26 50.00435 16.10676 25765 ft 363 kts 275°
2026-05-05 20:26 50.00795 16.06785 25757 ft 364 kts 275°
2026-05-05 20:26 50.01153 16.02893 25750 ft 364 kts 275°
2026-05-05 20:27 50.01746 15.99067 25737 ft 367 kts 290°
2026-05-05 20:27 50.02970 15.95568 25754 ft 371 kts 303°
2026-05-05 20:27 50.04726 15.92597 25757 ft 375 kts 315°
2026-05-05 20:27 50.06666 15.89945 25752 ft 376 kts 316°
2026-05-05 20:28 50.08666 15.87306 25751 ft 377 kts 317°
2026-05-05 20:28 50.10674 15.84670 25746 ft 378 kts 316°
2026-05-05 20:28 50.12680 15.82023 25747 ft 378 kts 316°
2026-05-05 20:28 50.14681 15.79361 25748 ft 378 kts 316°
2026-05-05 20:29 50.16674 15.76690 25757 ft 378 kts 316°
2026-05-05 20:29 50.18665 15.74007 25748 ft 379 kts 316°
2026-05-05 20:29 50.20663 15.71304 25746 ft 380 kts 316°
2026-05-05 20:29 50.22658 15.68599 25748 ft 380 kts 316°
2026-05-05 20:30 50.24661 15.65877 25744 ft 381 kts 316°
2026-05-05 20:30 50.26660 15.63155 25745 ft 381 kts 316°
2026-05-05 20:30 50.28660 15.60431 25757 ft 381 kts 316°
2026-05-05 20:30 50.30634 15.57738 25753 ft 381 kts 315°
2026-05-05 20:31 50.32634 15.55006 25746 ft 381 kts 315°
2026-05-05 20:31 50.34631 15.52276 25741 ft 381 kts 315°
2026-05-05 20:31 50.36628 15.49543 25737 ft 381 kts 315°
2026-05-05 20:31 50.38620 15.46814 25740 ft 380 kts 315°
2026-05-05 20:32 50.40615 15.44076 25742 ft 380 kts 315°
2026-05-05 20:32 50.42604 15.41344 25748 ft 380 kts 315°
2026-05-05 20:32 50.44593 15.38608 25742 ft 380 kts 315°
2026-05-05 20:32 50.46563 15.35896 25742 ft 381 kts 315°
2026-05-05 20:33 50.48554 15.33151 25747 ft 381 kts 315°
2026-05-05 20:33 50.50545 15.30404 25747 ft 382 kts 315°
2026-05-05 20:33 50.52541 15.27646 25754 ft 382 kts 315°
2026-05-05 20:33 50.54540 15.24879 25751 ft 383 kts 315°
2026-05-05 20:34 50.56545 15.22104 25747 ft 383 kts 315°
2026-05-05 20:34 50.58545 15.19331 25750 ft 383 kts 315°
2026-05-05 20:34 50.60541 15.16560 25747 ft 383 kts 315°
2026-05-05 20:34 50.62537 15.13786 25749 ft 382 kts 315°
2026-05-05 20:35 50.64531 15.11012 25752 ft 381 kts 315°
2026-05-05 20:35 50.66519 15.08244 25764 ft 381 kts 315°
2026-05-05 20:35 50.68504 15.05475 25764 ft 380 kts 314°
2026-05-05 20:35 50.70486 15.02707 25759 ft 380 kts 314°
2026-05-05 20:36 50.72466 14.99939 25757 ft 380 kts 314°
2026-05-05 20:36 50.74419 14.97205 25751 ft 379 kts 314°
2026-05-05 20:36 50.76393 14.94439 25756 ft 379 kts 314°
2026-05-05 20:36 50.78360 14.91678 25763 ft 379 kts 314°
2026-05-05 20:37 50.80336 14.88904 25759 ft 378 kts 314°
2026-05-05 20:37 50.81637 14.87074 25756 ft 378 kts 314°
2026-05-05 20:37 50.84259 14.83382 25759 ft 377 kts 314°
2026-05-05 20:37 50.86219 14.80620 25767 ft 377 kts 314°
2026-05-05 20:38 50.88177 14.77858 25787 ft 377 kts 314°
2026-05-05 20:38 50.90139 14.75086 25773 ft 378 kts 314°
2026-05-05 20:38 50.92062 14.72235 25759 ft 376 kts 307°
2026-05-05 20:38 50.93616 14.68898 25494 ft 379 kts 296°
2026-05-05 20:39 50.94732 14.65121 25127 ft 379 kts 284°
2026-05-05 20:39 50.95497 14.61098 24792 ft 383 kts 282°
2026-05-05 20:39 50.96200 14.57064 24434 ft 383 kts 281°
2026-05-05 20:39 50.96895 14.52997 24079 ft 381 kts 281°
2026-05-05 20:40 50.97590 14.48936 23725 ft 380 kts 281°
2026-05-05 20:40 50.98290 14.44890 23379 ft 378 kts 282°
2026-05-05 20:40 50.98991 14.40873 22960 ft 377 kts 282°
2026-05-05 20:40 50.99693 14.36869 22569 ft 375 kts 282°
2026-05-05 20:41 51.00394 14.32883 22169 ft 374 kts 282°
2026-05-05 20:41 51.01093 14.28911 21796 ft 373 kts 282°
2026-05-05 20:41 51.01790 14.24938 21399 ft 372 kts 282°
2026-05-05 20:41 51.02484 14.20981 21015 ft 372 kts 282°
2026-05-05 20:42 51.02942 14.18366 20766 ft 371 kts 282°
2026-05-05 20:42 51.03631 14.14421 20390 ft 370 kts 282°
2026-05-05 20:42 51.04319 14.10474 20045 ft 369 kts 282°
2026-05-05 20:42 51.05001 14.06557 19728 ft 367 kts 282°
2026-05-05 20:43 51.05899 14.01387 19337 ft 365 kts 282°
2026-05-05 20:43 51.06354 13.98760 19130 ft 364 kts 282°
2026-05-05 20:43 51.07024 13.94882 18823 ft 363 kts 282°
2026-05-05 20:43 51.07690 13.91015 18517 ft 362 kts 282°
2026-05-05 20:44 51.08353 13.87162 18213 ft 360 kts 282°
2026-05-05 20:44 51.09012 13.83321 17884 ft 359 kts 282°
2026-05-05 20:44 51.09668 13.79495 17536 ft 358 kts 282°
2026-05-05 20:44 51.10320 13.75677 17198 ft 357 kts 282°
2026-05-05 20:45 51.11611 13.68102 16531 ft 355 kts 282°
2026-05-05 20:45 51.12253 13.64317 16187 ft 352 kts 282°
2026-05-05 20:45 51.12889 13.60568 15858 ft 348 kts 282°
2026-05-05 20:46 51.13513 13.56882 15530 ft 343 kts 282°
2026-05-05 20:46 51.14130 13.53225 15203 ft 341 kts 282°
2026-05-05 20:46 51.14741 13.49594 14877 ft 339 kts 282°
2026-05-05 20:46 51.15348 13.45979 14566 ft 337 kts 282°
2026-05-05 20:47 51.15945 13.42424 14255 ft 335 kts 282°
2026-05-05 20:47 51.16544 13.38841 13958 ft 334 kts 282°
2026-05-05 20:47 51.17135 13.35262 13647 ft 333 kts 280°
2026-05-05 20:47 51.17449 13.31646 13351 ft 327 kts 269°
2026-05-05 20:48 51.17461 13.28046 13102 ft 323 kts 266°
2026-05-05 20:48 51.17434 13.24471 12833 ft 323 kts 266°
2026-05-05 20:48 51.17402 13.20882 12578 ft 323 kts 266°
2026-05-05 20:48 51.17376 13.17289 12322 ft 325 kts 266°
2026-05-05 20:49 51.17355 13.13677 12074 ft 326 kts 266°
2026-05-05 20:49 51.17337 13.10062 11814 ft 326 kts 266°
2026-05-05 20:49 51.17321 13.06507 11568 ft 324 kts 266°
2026-05-05 20:49 51.17306 13.02962 11300 ft 315 kts 266°
2026-05-05 20:50 51.17292 12.99521 11050 ft 307 kts 266°
2026-05-05 20:50 51.17276 12.96160 10797 ft 299 kts 266°
2026-05-05 20:50 51.17261 12.92886 10549 ft 293 kts 266°
2026-05-05 20:50 51.17243 12.89650 10319 ft 292 kts 266°
2026-05-05 20:51 51.17224 12.86409 10085 ft 292 kts 266°
2026-05-05 20:51 51.17216 12.83172 9852 ft 293 kts 269°
2026-05-05 20:51 51.17500 12.79932 9609 ft 296 kts 280°
2026-05-05 20:51 51.17959 12.76735 9357 ft 296 kts 281°
2026-05-05 20:52 51.18441 12.73541 9098 ft 296 kts 281°
2026-05-05 20:52 51.18921 12.70351 8806 ft 296 kts 281°
2026-05-05 20:52 51.19385 12.67244 8464 ft 286 kts 281°
2026-05-05 20:52 51.19832 12.64213 8201 ft 276 kts 281°
2026-05-05 20:53 51.20265 12.61251 7947 ft 273 kts 281°
2026-05-05 20:53 51.20692 12.58301 7696 ft 272 kts 281°
2026-05-05 20:53 51.21116 12.55353 7448 ft 272 kts 281°
2026-05-05 20:53 51.21537 12.52420 7192 ft 271 kts 281°
2026-05-05 20:54 51.21956 12.49491 6970 ft 271 kts 281°
2026-05-05 20:54 51.22373 12.46560 6718 ft 271 kts 281°
2026-05-05 20:54 51.22790 12.43631 6476 ft 270 kts 281°
2026-05-05 20:54 51.23206 12.40699 6246 ft 271 kts 281°
2026-05-05 20:55 51.23623 12.37751 5993 ft 275 kts 281°
2026-05-05 20:55 51.24048 12.34739 5747 ft 280 kts 281°
2026-05-05 20:55 51.24474 12.31719 5493 ft 277 kts 282°
2026-05-05 20:55 51.24893 12.28744 5235 ft 273 kts 281°
2026-05-05 20:56 51.25300 12.25851 5039 ft 265 kts 281°
2026-05-05 20:56 51.25693 12.23049 4988 ft 252 kts 282°
2026-05-05 20:56 51.26074 12.20333 4984 ft 249 kts 281°
2026-05-05 20:56 51.26449 12.17646 4977 ft 248 kts 282°
2026-05-05 20:57 51.26824 12.14954 4990 ft 250 kts 282°
2026-05-05 20:57 51.27203 12.12237 5001 ft 251 kts 281°
2026-05-05 20:57 51.27585 12.09488 4992 ft 254 kts 282°
2026-05-05 20:57 51.27967 12.06730 4987 ft 255 kts 282°
2026-05-05 20:58 51.28349 12.03965 4992 ft 255 kts 282°
2026-05-05 20:58 51.28615 12.01170 4984 ft 254 kts 267°
2026-05-05 20:58 51.28469 11.98405 4996 ft 252 kts 264°
2026-05-05 20:58 51.28302 11.95616 4929 ft 253 kts 264°
2026-05-05 20:59 51.28149 11.92811 4687 ft 253 kts 265°
2026-05-05 20:59 51.28001 11.90024 4470 ft 250 kts 265°
2026-05-05 20:59 51.27860 11.87281 4260 ft 244 kts 265°
2026-05-05 20:59 51.27732 11.84636 4069 ft 233 kts 269°
2026-05-05 21:00 51.28081 11.82220 4003 ft 220 kts 304°
2026-05-05 21:00 51.29104 11.80564 4006 ft 202 kts 332°
2026-05-05 21:00 51.30356 11.79760 3990 ft 189 kts 354°
2026-05-05 21:00 51.31658 11.79524 4017 ft 188 kts 359°
2026-05-05 21:01 51.32969 11.79364 4021 ft 190 kts 359°
2026-05-05 21:01 51.34299 11.79204 4011 ft 192 kts 359°
2026-05-05 21:01 51.35637 11.79040 3992 ft 193 kts 359°
2026-05-05 21:01 51.36956 11.79095 3998 ft 186 kts 19°
2026-05-05 21:02 51.38083 11.80017 3996 ft 181 kts 42°
2026-05-05 21:02 51.38874 11.81531 3992 ft 176 kts 63°
2026-05-05 21:02 51.39295 11.83355 4009 ft 177 kts 77°
2026-05-05 21:02 51.39512 11.85305 4007 ft 178 kts 83°
2026-05-05 21:03 51.39644 11.87288 3995 ft 180 kts 85°
2026-05-05 21:03 51.39744 11.89285 4008 ft 177 kts 86°
2026-05-05 21:03 51.39829 11.91171 3966 ft 163 kts 86°
2026-05-05 21:03 51.39907 11.92929 3803 ft 158 kts 86°
2026-05-05 21:04 51.39984 11.94664 3612 ft 157 kts 86°
2026-05-05 21:04 51.40061 11.96390 3408 ft 155 kts 85°
2026-05-05 21:04 51.40136 11.98087 3205 ft 152 kts 85°
2026-05-05 21:04 51.40212 11.99778 2998 ft 153 kts 85°
2026-05-05 21:05 51.40288 12.01471 2798 ft 152 kts 84°
2026-05-05 21:05 51.40364 12.03151 2592 ft 149 kts 84°
2026-05-05 21:05 51.40438 12.04792 2393 ft 147 kts 84°
2026-05-05 21:05 51.40513 12.06427 2192 ft 146 kts 85°
2026-05-05 21:06 51.40586 12.08037 2003 ft 144 kts 84°
2026-05-05 21:06 51.40656 12.09585 1802 ft 134 kts 84°
2026-05-05 21:06 51.40721 12.11004 1636 ft 123 kts 84°
2026-05-05 21:06 51.40784 12.12362 1486 ft 123 kts 84°
2026-05-05 21:07 51.40849 12.13760 1309 ft 128 kts 84°
2026-05-05 21:07 51.40915 12.15199 1128 ft 131 kts 84°
2026-05-05 21:07 51.40983 12.16662 937 ft 133 kts 84°
2026-05-05 21:07 51.41053 12.18156 779 ft 136 kts 85°
2026-05-05 21:08 51.41124 12.19669 570 ft 136 kts 86°
2026-05-05 21:08 51.41198 12.21163 446 ft 130 kts 86°
2026-05-05 21:08 51.41252 12.22307 459 ft 75 kts 85°
2026-05-05 21:08 51.41276 12.22815 462 ft 37 kts 86°
2026-05-05 21:09 51.41287 12.23132 468 ft 21 kts 86°
2026-05-05 21:09 51.41243 12.23265 469 ft 13 kts 167°
2026-05-05 21:09 51.41176 12.23276 470 ft 7 kts 175°
2026-05-05 21:09 51.41159 12.23278 471 ft 1 kts 176°
2026-05-05 21:10 51.41155 12.23278 471 ft 1 kts 176°
2026-05-05 21:10 51.41148 12.23279 471 ft 2 kts 176°
2026-05-05 21:10 51.41126 12.23281 472 ft 4 kts 176°
2026-05-05 21:10 51.41100 12.23283 472 ft 4 kts 177°
2026-05-05 21:11 51.41070 12.23290 471 ft 7 kts 163°
2026-05-05 21:11 51.41038 12.23357 468 ft 8 kts 96°
2026-05-05 21:11 51.41042 12.23449 470 ft 8 kts 85°
2026-05-05 21:11 51.41046 12.23538 467 ft 8 kts 85°
2026-05-05 21:12 51.41050 12.23623 470 ft 8 kts 85°
2026-05-05 21:12 51.41050 12.23706 470 ft 7 kts 105°
2026-05-05 21:12 51.41010 12.23747 468 ft 7 kts 174°
2026-05-05 21:12 51.40961 12.23753 467 ft 7 kts 175°
2026-05-05 21:13 51.40913 12.23759 466 ft 7 kts 175°
2026-05-05 21:13 51.40867 12.23765 465 ft 6 kts 175°
2026-05-05 21:13 51.40825 12.23767 464 ft 5 kts 191°
2026-05-05 21:13 51.40810 12.23724 463 ft 4 kts 263°
2026-05-05 21:14 51.40808 12.23675 464 ft 4 kts 266°
2026-05-05 21:14 51.40806 12.23627 463 ft 4 kts 265°
2026-05-05 21:14 51.40804 12.23582 463 ft 3 kts 265°
2026-05-05 21:14 51.40803 12.23562 463 ft 1 kts 265°
2026-05-05 21:15 51.40803 12.23558 463 ft 0 kts 265°